Traverse City, MI

7:07 AM EST on February 10, 2016 (GMT -0500)
Cherry Capital

Weather History for KTVC - July, 2013

Change the Weather History Date:

Thursday, July 18, 2013

  Actual Average Record
Temperature  
Mean Temperature 86 °F 69 °F  
Max Temperature 96 °F 81 °F 98 °F (1942)
Min Temperature 75 °F 58 °F 44 °F (1979)
Degree Days  
Heating Degree Days 0 1  
Month to date heating degree days 5 19  
Since 1 June heating degree days 107 131  
Since 1 July heating degree days 5 19  
Cooling Degree Days 21 5  
Month to date cooling degree days 169 90  
Year to date cooling degree days 298 191  
Since 1 June cooling degree days 256 171  
Growing Degree Days 36 (Base 50)    
Moisture  
Dew Point 69 °F    
Average Humidity 63    
Maximum Humidity 87    
Minimum Humidity 38    
Precipitation  
Precipitation 0.00 in 0.11 in 1.07 in (1996)
Month to date precipitation 1.10 1.74  
Year to date precipitation 14.86 16.45  
Sea Level Pressure  
Sea Level Pressure 29.98 in    
Wind  
Wind Speed 8 mph (WSW)    
Max Wind Speed 18 mph    
Max Gust Speed 30 mph    
Visibility 10 miles    
Events      
T = Trace of Precipitation, MM = Missing Value Source: NWS Daily Summary

Daily Weather History Graph

Daily Weather History Graph

Search for Another Location

Airport or City:

Trip Planner

Search our weather history database for the weather conditions in past years. The results will help you decide how hot, cold, wet, or windy it might be!

Date:

Astronomy

Jul. 18, 2013 Rise Set
Actual Time 6:13 AM EDT 9:22 PM EDT
Civil Twilight 5:38 AM EDT 9:57 PM EDT
Nautical Twilight 4:53 AM EDT 10:43 PM EDT
Astronomical Twilight 3:57 AM EDT 11:38 PM EDT
Moon 5:17 PM EDT (7/18) 2:06 AM EDT (7/18)
Length of Visible Light 16h 19m
Length of Day
15h 08m
Waxing Gibbous, 77% of the Moon is Illuminated
Jul 18
Waxing Gibbous
Jul 22
Full
Jul 29
Last Quarter
Aug 6
New
Aug 14
First Quarter

Hourly Weather History & Observations

Time (EDT) Temp. Heat Index Dew Point Humidity Pressure Visibility Wind Dir Wind Speed Gust Speed Precip Events Conditions
12:53 AM 79.0 °F - 71.1 °F 77% 30.11 in 10.0 mi SW 3.5 mph - N/A   Clear
1:53 AM 79.0 °F - 71.1 °F 77% 30.10 in 10.0 mi SW 5.8 mph - N/A   Clear
2:53 AM 78.1 °F - 71.1 °F 79% 30.08 in 10.0 mi WSW 6.9 mph - N/A   Clear
3:53 AM 78.1 °F - 71.1 °F 79% 30.08 in 10.0 mi SW 5.8 mph - N/A   Clear
4:53 AM 77.0 °F - 71.1 °F 82% 30.07 in 10.0 mi WSW 5.8 mph - N/A   Clear
5:53 AM 75.9 °F - 71.1 °F 85% 30.07 in 10.0 mi WSW 4.6 mph - N/A   Clear
6:53 AM 75.9 °F - 71.1 °F 85% 30.06 in 10.0 mi WSW 4.6 mph - N/A   Partly Cloudy
7:53 AM 78.1 °F - 71.1 °F 79% 30.06 in 10.0 mi Variable 4.6 mph - N/A   Partly Cloudy
8:53 AM 82.0 °F 86.3 °F 71.1 °F 69% 30.06 in 10.0 mi WNW 5.8 mph - N/A   Scattered Clouds
9:53 AM 84.9 °F 89.4 °F 70.0 °F 61% 30.05 in 10.0 mi West 5.8 mph - N/A   Scattered Clouds
10:53 AM 89.1 °F 93.7 °F 69.1 °F 52% 30.03 in 10.0 mi West 6.9 mph - N/A   Scattered Clouds
11:53 AM 90.0 °F 95.4 °F 70.0 °F 52% 30.03 in 10.0 mi WSW 6.9 mph - N/A   Mostly Cloudy
12:53 PM 91.9 °F 96.9 °F 69.1 °F 47% 30.01 in 10.0 mi West 10.4 mph 17.3 mph N/A   Mostly Cloudy
1:53 PM 89.1 °F 94.1 °F 70.0 °F 53% 29.98 in 10.0 mi North 4.6 mph - N/A   Mostly Cloudy
2:53 PM 96.1 °F 99.3 °F 66.0 °F 37% 29.94 in 10.0 mi West 12.7 mph 21.9 mph N/A   Mostly Cloudy
3:53 PM 93.9 °F 97.0 °F 66.0 °F 40% 29.94 in 10.0 mi WSW 13.8 mph 20.7 mph N/A   Mostly Cloudy
4:53 PM 93.9 °F 97.0 °F 66.0 °F 40% 29.90 in 10.0 mi SW 10.4 mph 25.3 mph N/A   Mostly Cloudy
5:53 PM 93.9 °F 96.1 °F 64.9 °F 38% 29.87 in 10.0 mi WSW 16.1 mph 23.0 mph N/A   Mostly Cloudy
6:53 PM 91.9 °F 95.9 °F 68.0 °F 45% 29.86 in 10.0 mi SW 11.5 mph 21.9 mph N/A   Mostly Cloudy
7:53 PM 90.0 °F 93.6 °F 68.0 °F 48% 29.83 in 10.0 mi WSW 11.5 mph 26.5 mph N/A   Scattered Clouds
8:53 PM 88.0 °F 92.1 °F 69.1 °F 53% 29.82 in 10.0 mi SW 9.2 mph 16.1 mph N/A   Scattered Clouds
9:53 PM 86.0 °F 90.1 °F 69.1 °F 57% 29.83 in 10.0 mi WSW 9.2 mph 16.1 mph N/A   Scattered Clouds
10:53 PM 84.9 °F 88.8 °F 69.1 °F 59% 29.82 in 10.0 mi WSW 8.1 mph - N/A   Clear
11:53 PM 84.0 °F 87.8 °F 69.1 °F 61% 29.81 in 10.0 mi WSW 10.4 mph 20.7 mph N/A   Clear